Year,Month,Day,Hour,Minute,Value (Times are PST for temperature in C)
2009,04,06,00,00,3.90
2009,04,06,00,01,3.90
2009,04,06,00,02,3.90
2009,04,06,00,03,3.80
2009,04,06,00,04,3.80
2009,04,06,00,05,3.80
2009,04,06,00,06,3.80
2009,04,06,00,07,3.80
2009,04,06,00,08,3.80
2009,04,06,00,09,3.80
2009,04,06,00,10,3.80
2009,04,06,00,11,3.80
2009,04,06,00,12,3.80
2009,04,06,00,13,3.80
2009,04,06,00,14,3.80
2009,04,06,00,15,3.80
2009,04,06,00,16,3.80
2009,04,06,00,17,3.80
2009,04,06,00,18,3.80
2009,04,06,00,19,3.80
2009,04,06,00,20,3.80
2009,04,06,00,21,3.80
2009,04,06,00,22,3.80
2009,04,06,00,23,3.80
2009,04,06,00,24,3.80
2009,04,06,00,25,3.80
2009,04,06,00,26,3.80
2009,04,06,00,27,3.70
2009,04,06,00,28,3.70
2009,04,06,00,29,3.70
2009,04,06,00,30,3.70
2009,04,06,00,31,3.70
2009,04,06,00,32,3.70
2009,04,06,00,33,3.60
2009,04,06,00,34,3.60
2009,04,06,00,35,3.60
2009,04,06,00,36,3.60
2009,04,06,00,37,3.60
2009,04,06,00,38,3.50
2009,04,06,00,39,3.50
2009,04,06,00,40,3.50
2009,04,06,00,41,3.50
2009,04,06,00,42,3.40
2009,04,06,00,43,3.40
2009,04,06,00,44,3.40
2009,04,06,00,45,3.30
2009,04,06,00,46,3.30
2009,04,06,00,47,3.30
2009,04,06,00,48,3.30
2009,04,06,00,49,3.30
2009,04,06,00,50,3.30
2009,04,06,00,51,3.20
2009,04,06,00,52,3.20
2009,04,06,00,53,3.20
2009,04,06,00,54,3.20
2009,04,06,00,55,3.20
2009,04,06,00,56,3.20
2009,04,06,00,57,3.20
2009,04,06,00,58,3.20
2009,04,06,00,59,3.20
2009,04,06,01,00,3.20
2009,04,06,01,01,3.20
2009,04,06,01,02,3.10
2009,04,06,01,03,3.20
2009,04,06,01,04,3.20
2009,04,06,01,05,3.20
2009,04,06,01,06,3.10
2009,04,06,01,07,3.10
2009,04,06,01,08,3.10
2009,04,06,01,09,3.10
2009,04,06,01,10,3.10
2009,04,06,01,11,3.10
2009,04,06,01,12,3.10
2009,04,06,01,13,3.00
2009,04,06,01,14,3.00
2009,04,06,01,15,3.00
2009,04,06,01,16,3.00
2009,04,06,01,17,3.00
2009,04,06,01,18,2.90
2009,04,06,01,19,2.90
2009,04,06,01,20,2.90
2009,04,06,01,21,2.80
2009,04,06,01,22,2.80
2009,04,06,01,23,2.80
2009,04,06,01,24,2.80
2009,04,06,01,25,2.80
2009,04,06,01,26,2.80
2009,04,06,01,27,2.80
2009,04,06,01,28,2.70
2009,04,06,01,29,2.70
2009,04,06,01,30,2.70
2009,04,06,01,31,2.70
2009,04,06,01,32,2.70
2009,04,06,01,33,2.70
2009,04,06,01,34,2.70
2009,04,06,01,35,2.70
2009,04,06,01,36,2.70
2009,04,06,01,37,2.70
2009,04,06,01,38,2.70
2009,04,06,01,39,2.70
2009,04,06,01,40,2.70
2009,04,06,01,41,2.70
2009,04,06,01,42,2.70
2009,04,06,01,43,2.70
2009,04,06,01,44,2.70
2009,04,06,01,45,2.70
2009,04,06,01,46,2.70
2009,04,06,01,47,2.70
2009,04,06,01,48,2.70
2009,04,06,01,49,2.70
2009,04,06,01,50,2.60
2009,04,06,01,51,2.70
2009,04,06,01,52,2.70
2009,04,06,01,53,2.70
2009,04,06,01,54,2.70
2009,04,06,01,55,2.60
2009,04,06,01,56,2.60
2009,04,06,01,57,2.60
2009,04,06,01,58,2.60
2009,04,06,01,59,2.60
2009,04,06,02,00,2.60
2009,04,06,02,01,2.60
2009,04,06,02,02,2.60
2009,04,06,02,03,2.60
2009,04,06,02,04,2.60
2009,04,06,02,05,2.60
2009,04,06,02,06,2.60
2009,04,06,02,07,2.60
2009,04,06,02,08,2.60
2009,04,06,02,09,2.50
2009,04,06,02,10,2.50
2009,04,06,02,11,2.50
2009,04,06,02,12,2.40
2009,04,06,02,13,2.40
2009,04,06,02,14,2.40
2009,04,06,02,15,2.40
2009,04,06,02,16,2.40
2009,04,06,02,17,2.30
2009,04,06,02,18,2.30
2009,04,06,02,19,2.30
2009,04,06,02,20,2.30
2009,04,06,02,21,2.30
2009,04,06,02,22,2.30
2009,04,06,02,23,2.30
2009,04,06,02,24,2.30
2009,04,06,02,25,2.30
2009,04,06,02,26,2.30
2009,04,06,02,27,2.30
2009,04,06,02,28,2.30
2009,04,06,02,29,2.30
2009,04,06,02,30,2.30
2009,04,06,02,31,2.30
2009,04,06,02,32,2.30
2009,04,06,02,33,2.30
2009,04,06,02,34,2.30
2009,04,06,02,35,2.30
2009,04,06,02,36,2.40
2009,04,06,02,37,2.40
2009,04,06,02,38,2.40
2009,04,06,02,39,2.40
2009,04,06,02,40,2.40
2009,04,06,02,41,2.40
2009,04,06,02,42,2.40
2009,04,06,02,43,2.40
2009,04,06,02,44,2.40
2009,04,06,02,45,2.40
2009,04,06,02,46,2.50
2009,04,06,02,47,2.50
2009,04,06,02,48,2.50
2009,04,06,02,49,2.50
2009,04,06,02,50,2.40
2009,04,06,02,51,2.40
2009,04,06,02,52,2.40
2009,04,06,02,53,2.40
2009,04,06,02,54,2.40
2009,04,06,02,55,2.40
2009,04,06,02,56,2.40
2009,04,06,02,57,2.40
2009,04,06,02,58,2.40
2009,04,06,02,59,2.40
2009,04,06,03,00,2.40
2009,04,06,03,01,2.40
2009,04,06,03,02,2.40
2009,04,06,03,03,2.30
2009,04,06,03,04,2.30
2009,04,06,03,05,2.30
2009,04,06,03,06,2.30
2009,04,06,03,07,2.30
2009,04,06,03,08,2.30
2009,04,06,03,09,2.30
2009,04,06,03,10,2.30
2009,04,06,03,11,2.30
2009,04,06,03,12,2.30
2009,04,06,03,13,2.30
2009,04,06,03,14,2.30
2009,04,06,03,15,2.40
2009,04,06,03,16,2.40
2009,04,06,03,17,2.40
2009,04,06,03,18,2.40
2009,04,06,03,19,2.50
2009,04,06,03,20,2.50
2009,04,06,03,21,2.40
2009,04,06,03,22,2.40
2009,04,06,03,23,2.40
2009,04,06,03,24,2.40
2009,04,06,03,25,2.40
2009,04,06,03,26,2.40
2009,04,06,03,27,2.40
2009,04,06,03,28,2.40
2009,04,06,03,29,2.40
2009,04,06,03,30,2.30
2009,04,06,03,31,2.30
2009,04,06,03,32,2.30
2009,04,06,03,33,2.30
2009,04,06,03,34,2.20
2009,04,06,03,35,2.20
2009,04,06,03,36,2.20
2009,04,06,03,37,2.20
2009,04,06,03,38,2.20
2009,04,06,03,39,2.20
2009,04,06,03,40,2.20
2009,04,06,03,41,2.20
2009,04,06,03,42,2.20
2009,04,06,03,43,2.20
2009,04,06,03,44,2.20
2009,04,06,03,45,2.10
2009,04,06,03,46,2.10
2009,04,06,03,47,2.10
2009,04,06,03,48,2.10
2009,04,06,03,49,2.00
2009,04,06,03,50,2.00
2009,04,06,03,51,2.00
2009,04,06,03,52,2.00
2009,04,06,03,53,2.00
2009,04,06,03,54,2.00
2009,04,06,03,55,2.00
2009,04,06,03,56,2.00
2009,04,06,03,57,2.00
2009,04,06,03,58,2.00
2009,04,06,03,59,2.00
2009,04,06,04,00,1.90
2009,04,06,04,01,1.90
2009,04,06,04,02,1.90
2009,04,06,04,03,1.90
2009,04,06,04,04,1.80
2009,04,06,04,05,1.80
2009,04,06,04,06,1.80
2009,04,06,04,07,1.70
2009,04,06,04,08,1.70
2009,04,06,04,09,1.70
2009,04,06,04,10,1.70
2009,04,06,04,11,1.70
2009,04,06,04,12,1.70
2009,04,06,04,13,1.70
2009,04,06,04,14,1.70
2009,04,06,04,15,1.70
2009,04,06,04,16,1.70
2009,04,06,04,17,1.70
2009,04,06,04,18,1.70
2009,04,06,04,19,1.70
2009,04,06,04,20,1.80
2009,04,06,04,21,1.80
2009,04,06,04,22,1.80
2009,04,06,04,23,1.80
2009,04,06,04,24,1.80
2009,04,06,04,25,1.80
2009,04,06,04,26,1.80
2009,04,06,04,27,1.80
2009,04,06,04,28,1.80
2009,04,06,04,29,1.80
2009,04,06,04,30,1.80
2009,04,06,04,31,1.80
2009,04,06,04,32,1.80
2009,04,06,04,33,1.80
2009,04,06,04,34,1.80
2009,04,06,04,35,1.80
2009,04,06,04,36,1.80
2009,04,06,04,37,1.80
2009,04,06,04,38,1.80
2009,04,06,04,39,1.80
2009,04,06,04,40,1.80
2009,04,06,04,41,1.80
2009,04,06,04,42,1.80
2009,04,06,04,43,1.80
2009,04,06,04,44,1.80
2009,04,06,04,45,1.80
2009,04,06,04,46,1.80
2009,04,06,04,47,1.90
2009,04,06,04,48,1.90
2009,04,06,04,49,2.00
2009,04,06,04,50,2.00
2009,04,06,04,51,2.10
2009,04,06,04,52,2.10
2009,04,06,04,53,2.10
2009,04,06,04,54,2.10
2009,04,06,04,55,2.00
2009,04,06,04,56,2.00
2009,04,06,04,57,2.00
2009,04,06,04,58,1.90
2009,04,06,04,59,1.90
2009,04,06,05,00,1.90
2009,04,06,05,01,1.90
2009,04,06,05,02,1.90
2009,04,06,05,03,1.90
2009,04,06,05,04,1.90
2009,04,06,05,05,1.90
2009,04,06,05,06,1.90
2009,04,06,05,07,1.90
2009,04,06,05,08,1.90
2009,04,06,05,09,1.80
2009,04,06,05,10,1.80
2009,04,06,05,11,1.80
2009,04,06,05,12,1.80
2009,04,06,05,13,1.80
2009,04,06,05,14,1.80
2009,04,06,05,15,1.80
2009,04,06,05,16,1.80
2009,04,06,05,17,1.80
2009,04,06,05,18,1.80
2009,04,06,05,19,1.80
2009,04,06,05,20,1.80
2009,04,06,05,21,1.80
2009,04,06,05,22,1.80
2009,04,06,05,23,1.80
2009,04,06,05,24,1.80
2009,04,06,05,25,1.80
2009,04,06,05,26,1.70
2009,04,06,05,27,1.70
2009,04,06,05,28,1.70
2009,04,06,05,29,1.70
2009,04,06,05,30,1.70
2009,04,06,05,31,1.70
2009,04,06,05,32,1.60
2009,04,06,05,33,1.60
2009,04,06,05,34,1.60
2009,04,06,05,35,1.60
2009,04,06,05,36,1.60
2009,04,06,05,37,1.60
2009,04,06,05,38,1.60
2009,04,06,05,39,1.50
2009,04,06,05,40,1.50
2009,04,06,05,41,1.50
2009,04,06,05,42,1.50
2009,04,06,05,43,1.50
2009,04,06,05,44,1.40
2009,04,06,05,45,1.40
2009,04,06,05,46,1.40
2009,04,06,05,47,1.50
2009,04,06,05,48,1.50
2009,04,06,05,49,1.50
2009,04,06,05,50,1.40
2009,04,06,05,51,1.40
2009,04,06,05,52,1.40
2009,04,06,05,53,1.40
2009,04,06,05,54,1.40
2009,04,06,05,55,1.40
2009,04,06,05,56,1.30
2009,04,06,05,57,1.30
2009,04,06,05,58,1.30
2009,04,06,05,59,1.30
2009,04,06,06,00,1.30
2009,04,06,06,01,1.30
2009,04,06,06,02,1.30
2009,04,06,06,03,1.30
2009,04,06,06,04,1.30
2009,04,06,06,05,1.30
2009,04,06,06,06,1.30
2009,04,06,06,07,1.30
2009,04,06,06,08,1.30
2009,04,06,06,09,1.30
2009,04,06,06,10,1.30
2009,04,06,06,11,1.30
2009,04,06,06,12,1.30
2009,04,06,06,13,1.30
2009,04,06,06,14,1.30
2009,04,06,06,15,1.30
2009,04,06,06,16,1.30
2009,04,06,06,17,1.30
2009,04,06,06,18,1.30
2009,04,06,06,19,1.30
2009,04,06,06,20,1.30
2009,04,06,06,21,1.30
2009,04,06,06,22,1.40
2009,04,06,06,23,1.50
2009,04,06,06,24,1.50
2009,04,06,06,25,1.60
2009,04,06,06,26,1.60
2009,04,06,06,27,1.60
2009,04,06,06,28,1.60
2009,04,06,06,29,1.60
2009,04,06,06,30,1.60
2009,04,06,06,31,1.60
2009,04,06,06,32,1.70
2009,04,06,06,33,1.70
2009,04,06,06,34,1.70
2009,04,06,06,35,1.70
2009,04,06,06,36,1.70
2009,04,06,06,37,1.70
2009,04,06,06,38,1.70
2009,04,06,06,39,1.70
2009,04,06,06,40,1.70
2009,04,06,06,41,1.70
2009,04,06,06,42,1.80
2009,04,06,06,43,1.80
2009,04,06,06,44,1.90
2009,04,06,06,45,2.00
2009,04,06,06,46,2.00
2009,04,06,06,47,2.10
2009,04,06,06,48,2.10
2009,04,06,06,49,2.20
2009,04,06,06,50,2.20
2009,04,06,06,51,2.30
2009,04,06,06,52,2.30
2009,04,06,06,53,2.40
2009,04,06,06,54,2.40
2009,04,06,06,55,2.40
2009,04,06,06,56,2.50
2009,04,06,06,57,2.50
2009,04,06,06,58,2.60
2009,04,06,06,59,2.60
2009,04,06,07,00,2.60
2009,04,06,07,01,2.60
2009,04,06,07,02,2.60
2009,04,06,07,03,2.60
2009,04,06,07,04,2.60
2009,04,06,07,05,2.50
2009,04,06,07,06,2.50
2009,04,06,07,07,2.40
2009,04,06,07,08,2.40
2009,04,06,07,09,2.30
2009,04,06,07,10,2.20
2009,04,06,07,11,2.20
2009,04,06,07,12,2.10
2009,04,06,07,13,2.00
2009,04,06,07,14,1.90
2009,04,06,07,15,1.90
2009,04,06,07,16,1.90
2009,04,06,07,17,1.80
2009,04,06,07,18,1.80
2009,04,06,07,19,1.80
2009,04,06,07,20,1.80
2009,04,06,07,21,1.80
2009,04,06,07,22,1.80
2009,04,06,07,23,1.80
2009,04,06,07,24,1.80
2009,04,06,07,25,1.80
2009,04,06,07,26,1.80
2009,04,06,07,27,1.80
2009,04,06,07,28,1.80
2009,04,06,07,29,1.80
2009,04,06,07,30,1.80
2009,04,06,07,31,1.70
2009,04,06,07,32,1.70
2009,04,06,07,33,1.70
2009,04,06,07,34,1.70
2009,04,06,07,35,1.70
2009,04,06,07,36,1.80
2009,04,06,07,37,1.80
2009,04,06,07,38,1.80
2009,04,06,07,39,1.80
2009,04,06,07,40,1.80
2009,04,06,07,41,1.90
2009,04,06,07,42,1.90
2009,04,06,07,43,1.90
2009,04,06,07,44,2.00
2009,04,06,07,45,2.00
2009,04,06,07,46,2.00
2009,04,06,07,47,2.10
2009,04,06,07,48,2.10
2009,04,06,07,49,2.10
2009,04,06,07,50,2.10
2009,04,06,07,51,2.20
2009,04,06,07,52,2.30
2009,04,06,07,53,2.30
2009,04,06,07,54,2.40
2009,04,06,07,55,2.40
2009,04,06,07,56,2.50
2009,04,06,07,57,2.60
2009,04,06,07,58,2.70
2009,04,06,07,59,2.80
2009,04,06,08,00,2.90
2009,04,06,08,01,3.00
2009,04,06,08,02,3.10
2009,04,06,08,03,3.20
2009,04,06,08,04,3.40
2009,04,06,08,05,3.50
2009,04,06,08,06,3.60
2009,04,06,08,07,3.80
2009,04,06,08,08,3.90
2009,04,06,08,09,4.10
2009,04,06,08,10,4.40
2009,04,06,08,11,4.60
2009,04,06,08,12,4.80
2009,04,06,08,13,5.00
2009,04,06,08,14,5.10
2009,04,06,08,15,5.30
2009,04,06,08,16,5.40
2009,04,06,08,17,5.50
2009,04,06,08,18,5.60
2009,04,06,08,19,5.70
2009,04,06,08,20,5.80
2009,04,06,08,21,5.90
2009,04,06,08,22,6.00
2009,04,06,08,23,6.10
2009,04,06,08,24,6.20
2009,04,06,08,25,6.20
2009,04,06,08,26,6.20
2009,04,06,08,27,6.30
2009,04,06,08,28,6.30
2009,04,06,08,29,6.30
2009,04,06,08,30,6.40
2009,04,06,08,31,6.50
2009,04,06,08,32,6.50
2009,04,06,08,33,6.60
2009,04,06,08,34,6.70
2009,04,06,08,35,6.70
2009,04,06,08,36,6.80
2009,04,06,08,37,6.80
2009,04,06,08,38,6.90
2009,04,06,08,39,7.00
2009,04,06,08,40,7.10
2009,04,06,08,41,7.10
2009,04,06,08,42,7.20
2009,04,06,08,43,7.20
2009,04,06,08,44,7.30
2009,04,06,08,45,7.30
2009,04,06,08,46,7.40
2009,04,06,08,47,7.50
2009,04,06,08,48,7.70
2009,04,06,08,49,7.70
2009,04,06,08,50,7.80
2009,04,06,08,51,7.90
2009,04,06,08,52,8.00
2009,04,06,08,53,8.20
2009,04,06,08,54,8.30
2009,04,06,08,55,8.40
2009,04,06,08,56,8.50
2009,04,06,08,57,8.60
2009,04,06,08,58,8.70
2009,04,06,08,59,8.70
2009,04,06,09,00,8.70
2009,04,06,09,01,8.80
2009,04,06,09,02,8.80
2009,04,06,09,03,8.80
2009,04,06,09,04,8.90
2009,04,06,09,05,8.90
2009,04,06,09,06,8.90
2009,04,06,09,07,9.00
2009,04,06,09,08,9.10
2009,04,06,09,09,9.20
2009,04,06,09,10,9.20
2009,04,06,09,11,9.30
2009,04,06,09,12,9.30
2009,04,06,09,13,9.20
2009,04,06,09,14,9.20
2009,04,06,09,15,9.30
2009,04,06,09,16,9.30
2009,04,06,09,17,9.20
2009,04,06,09,18,9.20
2009,04,06,09,19,9.20
2009,04,06,09,20,9.10
2009,04,06,09,21,9.00
2009,04,06,09,22,9.00
2009,04,06,09,23,9.00
2009,04,06,09,24,9.10
2009,04,06,09,25,9.10
2009,04,06,09,26,9.20
2009,04,06,09,27,9.20
2009,04,06,09,28,9.20
2009,04,06,09,29,9.10
2009,04,06,09,30,9.10
2009,04,06,09,31,9.10
2009,04,06,09,32,9.10
2009,04,06,09,33,9.10
2009,04,06,09,34,9.20
2009,04,06,09,35,9.20
2009,04,06,09,36,9.20
2009,04,06,09,37,9.20
2009,04,06,09,38,9.20
2009,04,06,09,39,9.20
2009,04,06,09,40,9.20
2009,04,06,09,41,9.20
2009,04,06,09,42,9.20
2009,04,06,09,43,9.20
2009,04,06,09,44,9.10
2009,04,06,09,45,9.00
2009,04,06,09,46,8.90
2009,04,06,09,47,8.90
2009,04,06,09,48,8.80
2009,04,06,09,49,8.80
2009,04,06,09,50,8.80
2009,04,06,09,51,8.90
2009,04,06,09,52,9.00
2009,04,06,09,53,9.10
2009,04,06,09,54,9.20
2009,04,06,09,55,9.40
2009,04,06,09,56,9.50
2009,04,06,09,57,9.70
2009,04,06,09,58,9.80
2009,04,06,09,59,9.90
2009,04,06,10,00,10.20
2009,04,06,10,01,10.30
2009,04,06,10,02,10.50
2009,04,06,10,03,10.60
2009,04,06,10,04,10.70
2009,04,06,10,05,10.80
2009,04,06,10,06,10.80
2009,04,06,10,07,10.80
2009,04,06,10,08,10.80
2009,04,06,10,09,10.80
2009,04,06,10,10,10.90
2009,04,06,10,11,10.90
2009,04,06,10,12,11.00
2009,04,06,10,13,11.10
2009,04,06,10,14,11.30
2009,04,06,10,15,11.40
2009,04,06,10,16,11.50
2009,04,06,10,17,11.60
2009,04,06,10,18,11.60
2009,04,06,10,19,11.50
2009,04,06,10,20,11.50
2009,04,06,10,21,11.50
2009,04,06,10,22,11.40
2009,04,06,10,23,11.40
2009,04,06,10,24,11.30
2009,04,06,10,25,11.30
2009,04,06,10,26,11.20
2009,04,06,10,27,11.10
2009,04,06,10,28,10.90
2009,04,06,10,29,10.90
2009,04,06,10,30,10.80
2009,04,06,10,31,10.70
2009,04,06,10,32,10.60
2009,04,06,10,33,10.60
2009,04,06,10,34,10.60
2009,04,06,10,35,10.50
2009,04,06,10,36,10.40
2009,04,06,10,37,10.40
2009,04,06,10,38,10.40
2009,04,06,10,39,10.40
2009,04,06,10,40,10.40
2009,04,06,10,41,10.40
2009,04,06,10,42,10.30
2009,04,06,10,43,10.10
2009,04,06,10,44,9.90
2009,04,06,10,45,9.80
2009,04,06,10,46,9.70
2009,04,06,10,47,9.70
2009,04,06,10,48,9.70
2009,04,06,10,49,9.70
2009,04,06,10,50,9.70
2009,04,06,10,51,9.70
2009,04,06,10,52,9.70
2009,04,06,10,53,9.70
2009,04,06,10,54,9.80
2009,04,06,10,55,9.80
2009,04,06,10,56,9.80
2009,04,06,10,57,9.80
2009,04,06,10,58,9.70
2009,04,06,10,59,9.70
2009,04,06,11,00,9.80
2009,04,06,11,01,9.80
2009,04,06,11,02,9.80
2009,04,06,11,03,9.80
2009,04,06,11,04,9.80
2009,04,06,11,05,9.90
2009,04,06,11,06,9.90
2009,04,06,11,07,10.00
2009,04,06,11,08,10.10
2009,04,06,11,09,10.10
2009,04,06,11,10,10.20
2009,04,06,11,11,10.20
2009,04,06,11,12,10.30
2009,04,06,11,13,10.20
2009,04,06,11,14,10.30
2009,04,06,11,15,10.20
2009,04,06,11,16,10.30
2009,04,06,11,17,10.30
2009,04,06,11,18,10.40
2009,04,06,11,19,10.40
2009,04,06,11,20,10.50
2009,04,06,11,21,10.50
2009,04,06,11,22,10.60
2009,04,06,11,23,10.70
2009,04,06,11,24,10.70
2009,04,06,11,25,10.80
2009,04,06,11,26,10.80
2009,04,06,11,27,10.80
2009,04,06,11,28,10.80
2009,04,06,11,29,10.80
2009,04,06,11,30,10.80
2009,04,06,11,31,10.70
2009,04,06,11,32,10.60
2009,04,06,11,33,10.50
2009,04,06,11,34,10.50
2009,04,06,11,35,10.50
2009,04,06,11,36,10.70
2009,04,06,11,37,10.80
2009,04,06,11,38,10.80
2009,04,06,11,39,10.90
2009,04,06,11,40,11.10
2009,04,06,11,41,11.10
2009,04,06,11,42,11.20
2009,04,06,11,43,11.10
2009,04,06,11,44,11.10
2009,04,06,11,45,11.20
2009,04,06,11,46,11.30
2009,04,06,11,47,11.30
2009,04,06,11,48,11.30
2009,04,06,11,49,11.30
2009,04,06,11,50,11.40
2009,04,06,11,51,11.40
2009,04,06,11,52,11.40
2009,04,06,11,53,11.50
2009,04,06,11,54,11.50
2009,04,06,11,55,11.50
2009,04,06,11,56,11.50
2009,04,06,11,57,11.60
2009,04,06,11,58,11.60
2009,04,06,11,59,11.70
2009,04,06,12,00,11.70
2009,04,06,12,01,11.80
2009,04,06,12,02,11.90
2009,04,06,12,03,11.90
2009,04,06,12,04,12.00
2009,04,06,12,05,12.10
2009,04,06,12,06,12.20
2009,04,06,12,07,12.30
2009,04,06,12,08,12.30
2009,04,06,12,09,12.50
2009,04,06,12,10,12.60
2009,04,06,12,11,12.70
2009,04,06,12,12,12.80
2009,04,06,12,13,13.00
2009,04,06,12,14,13.10
2009,04,06,12,15,13.20
2009,04,06,12,16,13.20
2009,04,06,12,17,13.30
2009,04,06,12,18,13.50
2009,04,06,12,19,13.60
2009,04,06,12,20,13.80
2009,04,06,12,21,13.90
2009,04,06,12,22,14.10
2009,04,06,12,23,14.10
2009,04,06,12,24,14.10
2009,04,06,12,25,13.90
2009,04,06,12,26,13.70
2009,04,06,12,27,13.50
2009,04,06,12,28,13.30
2009,04,06,12,29,13.10
2009,04,06,12,30,13.10
2009,04,06,12,31,13.10
2009,04,06,12,32,13.10
2009,04,06,12,33,13.20
2009,04,06,12,34,13.30
2009,04,06,12,35,13.40
2009,04,06,12,36,13.50
2009,04,06,12,37,13.60
2009,04,06,12,38,13.60
2009,04,06,12,39,13.60
2009,04,06,12,40,13.40
2009,04,06,12,41,13.10
2009,04,06,12,42,12.80
2009,04,06,12,43,12.60
2009,04,06,12,44,12.50
2009,04,06,12,45,12.40
2009,04,06,12,46,12.40
2009,04,06,12,47,12.50
2009,04,06,12,48,12.50
2009,04,06,12,49,12.70
2009,04,06,12,50,12.70
2009,04,06,12,51,12.80
2009,04,06,12,52,12.90
2009,04,06,12,53,13.00
2009,04,06,12,54,13.10
2009,04,06,12,55,13.30
2009,04,06,12,56,13.40
2009,04,06,12,57,13.40
2009,04,06,12,58,13.30
2009,04,06,12,59,13.30
2009,04,06,13,00,13.40
2009,04,06,13,01,13.50
2009,04,06,13,02,13.60
2009,04,06,13,03,13.70
2009,04,06,13,04,13.90
2009,04,06,13,05,14.00
2009,04,06,13,06,14.10
2009,04,06,13,07,14.20
2009,04,06,13,08,14.30
2009,04,06,13,09,14.40
2009,04,06,13,10,14.50
2009,04,06,13,11,14.50
2009,04,06,13,12,14.50
2009,04,06,13,13,14.50
2009,04,06,13,14,14.70
2009,04,06,13,15,14.70
2009,04,06,13,16,14.80
2009,04,06,13,17,14.80
2009,04,06,13,18,14.80
2009,04,06,13,19,15.00
2009,04,06,13,20,15.00
2009,04,06,13,21,15.10
2009,04,06,13,22,15.20
2009,04,06,13,23,15.30
2009,04,06,13,24,15.30
2009,04,06,13,25,15.40
2009,04,06,13,26,15.40
2009,04,06,13,27,15.40
2009,04,06,13,28,15.40
2009,04,06,13,29,15.30
2009,04,06,13,30,15.20
2009,04,06,13,31,15.20
2009,04,06,13,32,15.20
2009,04,06,13,33,15.20
2009,04,06,13,34,15.10
2009,04,06,13,35,15.00
2009,04,06,13,36,14.90
2009,04,06,13,37,14.70
2009,04,06,13,38,14.40
2009,04,06,13,39,14.20
2009,04,06,13,40,14.00
2009,04,06,13,41,13.80
2009,04,06,13,42,13.70
2009,04,06,13,43,13.70
2009,04,06,13,44,13.70
2009,04,06,13,45,13.80
2009,04,06,13,46,13.80
2009,04,06,13,47,13.80
2009,04,06,13,48,13.80
2009,04,06,13,49,13.80
2009,04,06,13,50,13.80
2009,04,06,13,51,13.80
2009,04,06,13,52,13.70
2009,04,06,13,53,13.70
2009,04,06,13,54,13.70
2009,04,06,13,55,13.70
2009,04,06,13,56,13.80
2009,04,06,13,57,13.80
2009,04,06,13,58,13.80
2009,04,06,13,59,13.70
2009,04,06,14,00,13.70
2009,04,06,14,01,13.50
2009,04,06,14,02,13.50
2009,04,06,14,03,13.40
2009,04,06,14,04,13.30
2009,04,06,14,05,13.20
2009,04,06,14,06,13.10
2009,04,06,14,07,13.00
2009,04,06,14,08,13.00
2009,04,06,14,09,13.00
2009,04,06,14,10,13.00
2009,04,06,14,11,12.80
2009,04,06,14,12,12.70
2009,04,06,14,13,12.60
2009,04,06,14,14,12.60
2009,04,06,14,15,12.60
2009,04,06,14,16,12.60
2009,04,06,14,17,12.60
2009,04,06,14,18,12.60
2009,04,06,14,19,12.60
2009,04,06,14,20,12.60
2009,04,06,14,21,12.60
2009,04,06,14,22,12.70
2009,04,06,14,23,12.60
2009,04,06,14,24,12.60
2009,04,06,14,25,12.60
2009,04,06,14,26,12.60
2009,04,06,14,27,12.60
2009,04,06,14,28,12.50
2009,04,06,14,29,12.50
2009,04,06,14,30,12.60
2009,04,06,14,31,12.60
2009,04,06,14,32,12.60
2009,04,06,14,33,12.60
2009,04,06,14,34,12.60
2009,04,06,14,35,12.50
2009,04,06,14,36,12.40
2009,04,06,14,37,12.30
2009,04,06,14,38,12.30
2009,04,06,14,39,12.30
2009,04,06,14,40,12.40
2009,04,06,14,41,12.50
2009,04,06,14,42,12.60
2009,04,06,14,43,12.70
2009,04,06,14,44,12.70
2009,04,06,14,45,12.60
2009,04,06,14,46,12.50
2009,04,06,14,47,12.40
2009,04,06,14,48,12.30
2009,04,06,14,49,12.30
2009,04,06,14,50,12.30
2009,04,06,14,51,12.40
2009,04,06,14,52,12.50
2009,04,06,14,53,12.60
2009,04,06,14,54,12.70
2009,04,06,14,55,12.80
2009,04,06,14,56,12.90
2009,04,06,14,57,13.00
2009,04,06,14,58,13.10
2009,04,06,14,59,13.20
2009,04,06,15,00,13.20
2009,04,06,15,01,13.30
2009,04,06,15,02,13.30
2009,04,06,15,03,13.30
2009,04,06,15,04,13.30
2009,04,06,15,05,13.30
2009,04,06,15,06,13.30
2009,04,06,15,07,13.40
2009,04,06,15,08,13.50
2009,04,06,15,09,13.50
2009,04,06,15,10,13.60
2009,04,06,15,11,13.70
2009,04,06,15,12,13.70
2009,04,06,15,13,13.80
2009,04,06,15,14,13.80
2009,04,06,15,15,13.80
2009,04,06,15,16,13.80
2009,04,06,15,17,13.90
2009,04,06,15,18,14.00
2009,04,06,15,19,14.10
2009,04,06,15,20,14.10
2009,04,06,15,21,14.10
2009,04,06,15,22,14.20
2009,04,06,15,23,14.20
2009,04,06,15,24,14.30
2009,04,06,15,25,14.30
2009,04,06,15,26,14.30
2009,04,06,15,27,14.30
2009,04,06,15,28,14.30
2009,04,06,15,29,14.20
2009,04,06,15,30,14.20
2009,04,06,15,31,14.20
2009,04,06,15,32,14.20
2009,04,06,15,33,14.20
2009,04,06,15,34,14.30
2009,04,06,15,35,14.30
2009,04,06,15,36,14.40
2009,04,06,15,37,14.40
2009,04,06,15,38,14.50
2009,04,06,15,39,14.40
2009,04,06,15,40,14.50
2009,04,06,15,41,14.60
2009,04,06,15,42,14.70
2009,04,06,15,43,14.80
2009,04,06,15,44,14.70
2009,04,06,15,45,14.60
2009,04,06,15,46,14.50
2009,04,06,15,47,14.50
2009,04,06,15,48,14.60
2009,04,06,15,49,14.60
2009,04,06,15,50,14.60
2009,04,06,15,51,14.70
2009,04,06,15,52,14.60
2009,04,06,15,53,14.60
2009,04,06,15,54,14.40
2009,04,06,15,55,14.30
2009,04,06,15,56,14.20
2009,04,06,15,57,14.10
2009,04,06,15,58,14.10
2009,04,06,15,59,14.00
2009,04,06,16,00,14.00
2009,04,06,16,01,14.00
2009,04,06,16,02,14.00
2009,04,06,16,03,14.00
2009,04,06,16,04,13.90
2009,04,06,16,05,14.00
2009,04,06,16,06,14.00
2009,04,06,16,07,14.10
2009,04,06,16,08,14.10
2009,04,06,16,09,14.10
2009,04,06,16,10,14.20
2009,04,06,16,11,14.30
2009,04,06,16,12,14.30
2009,04,06,16,13,14.30
2009,04,06,16,14,14.20
2009,04,06,16,15,14.10
2009,04,06,16,16,14.10
2009,04,06,16,17,14.10
2009,04,06,16,18,14.20
2009,04,06,16,19,14.30
2009,04,06,16,20,14.30
2009,04,06,16,21,14.30
2009,04,06,16,22,14.40
2009,04,06,16,23,14.40
2009,04,06,16,24,14.50
2009,04,06,16,25,14.50
2009,04,06,16,26,14.50
2009,04,06,16,27,14.60
2009,04,06,16,28,14.60
2009,04,06,16,29,14.60
2009,04,06,16,30,14.50
2009,04,06,16,31,14.50
2009,04,06,16,32,14.60
2009,04,06,16,33,14.60
2009,04,06,16,34,14.70
2009,04,06,16,35,14.70
2009,04,06,16,36,14.80
2009,04,06,16,37,14.70
2009,04,06,16,38,14.70
2009,04,06,16,39,14.70
2009,04,06,16,40,14.70
2009,04,06,16,41,14.70
2009,04,06,16,42,14.80
2009,04,06,16,43,14.90
2009,04,06,16,44,14.90
2009,04,06,16,45,14.90
2009,04,06,16,46,14.90
2009,04,06,16,47,15.00
2009,04,06,16,48,15.00
2009,04,06,16,49,15.00
2009,04,06,16,50,15.00
2009,04,06,16,51,15.00
2009,04,06,16,52,15.00
2009,04,06,16,53,15.10
2009,04,06,16,54,15.20
2009,04,06,16,55,15.20
2009,04,06,16,56,15.30
2009,04,06,16,57,15.30
2009,04,06,16,58,15.40
2009,04,06,16,59,15.50
2009,04,06,17,00,15.50
2009,04,06,17,01,15.50
2009,04,06,17,02,15.50
2009,04,06,17,03,15.50
2009,04,06,17,04,15.40
2009,04,06,17,05,15.40
2009,04,06,17,06,15.40
2009,04,06,17,07,15.40
2009,04,06,17,08,15.40
2009,04,06,17,09,15.40
2009,04,06,17,10,15.50
2009,04,06,17,11,15.40
2009,04,06,17,12,15.30
2009,04,06,17,13,15.20
2009,04,06,17,14,15.10
2009,04,06,17,15,15.00
2009,04,06,17,16,15.00
2009,04,06,17,17,15.10
2009,04,06,17,18,15.20
2009,04,06,17,19,15.30
2009,04,06,17,20,15.40
2009,04,06,17,21,15.50
2009,04,06,17,22,15.60
2009,04,06,17,23,15.70
2009,04,06,17,24,15.70
2009,04,06,17,25,15.80
2009,04,06,17,26,15.80
2009,04,06,17,27,15.80
2009,04,06,17,28,15.80
2009,04,06,17,29,15.80
2009,04,06,17,30,15.90
2009,04,06,17,31,15.90
2009,04,06,17,32,15.90
2009,04,06,17,33,16.00
2009,04,06,17,34,16.10
2009,04,06,17,35,16.10
2009,04,06,17,36,16.10
2009,04,06,17,37,16.20
2009,04,06,17,38,16.10
2009,04,06,17,39,16.10
2009,04,06,17,40,16.10
2009,04,06,17,41,16.00
2009,04,06,17,42,16.00
2009,04,06,17,43,16.00
2009,04,06,17,44,15.90
2009,04,06,17,45,15.90
2009,04,06,17,46,15.90